Location: Berg
(47.2344°N, 9.5296°E)
Time: 22:58:33
(UTC+00:00)

Cosmos 1626 Rocket - Pass Details

Date: 24 January 2021
Orbit: 603 x 631 km, 82.5° (Epoch: 04 March)

Event Time Altitude Azimuth Distance (km) Brightness Sun altitude
Rises 17:14:39 0° 171° (S) 2,873 7.1 -10.7°
Reaches altitude 10° 17:16:55 10° 165° (SSE) 1,977 6.2 -11.0°
Maximum altitude 17:21:06 46° 93° (E) 846 3.8 -11.7°
Drops below altitude 10° 17:25:21 10° 21° (NNE) 2,010 5.8 -12.4°
Sets 17:27:40 0° 15° (NNE) 2,926 6.7 -12.8°
